Date,TemperatureHighF,TemperatureAvgF,TemperatureLowF,DewpointHighF,DewpointAvgF,DewpointLowF,HumidityHigh,HumidityAvg,HumidityLow,PressureMaxIn,PressureMinIn,WindSpeedMaxMPH,WindSpeedAvgMPH,GustSpeedMaxMPH,PrecipitationSumIn
2013-9-1,87,77,72,81,73,64,95,86,72,29.78,29.69,8,2,14,0.37
2013-9-2,80,75,72,78,68,61,95,80,64,29.72,29.63,11,2,19,0.42
2013-9-3,81,74,66,74,62,58,96,66,47,29.82,29.64,12,4,18,0.00
2013-9-4,81,70,59,65,61,57,100,76,49,29.94,29.82,11,4,15,0.00
2013-9-5,77,68,58,67,58,45,99,75,37,30.07,29.87,12,4,18,0.00
2013-9-6,71,60,48,55,49,42,100,72,37,30.18,30.06,9,2,13,0.00
2013-9-7,79,64,46,64,54,46,100,75,40,30.06,29.84,10,2,15,0.00
2013-9-8,80,70,61,69,60,48,99,73,43,30.01,29.77,17,4,21,0.00
2013-9-9,75,64,48,66,56,48,100,77,51,30.15,30.01,12,3,14,0.00
2013-9-10,86,76,67,78,72,65,98,88,71,30.09,29.97,13,5,18,0.00
2013-9-11,93,82,73,82,74,62,96,78,60,30.04,29.90,18,4,18,0.00
2013-9-12,88,77,70,80,71,60,97,84,68,29.92,29.62,36,4,36,0.67
2013-9-13,75,68,59,68,59,54,97,74,55,29.81,29.57,23,5,23,0.05
2013-9-14,64,58,48,53,50,47,100,76,60,30.07,29.80,18,5,19,0.00
2013-9-15,73,58,44,59,51,44,100,81,43,30.15,30.00,14,2,16,0.00
2013-9-16,71,62,55,63,56,51,100,81,56,30.17,29.96,14,2,16,0.10
2013-9-17,66,56,47,52,45,39,100,72,42,30.35,30.16,19,4,19,0.00
2013-9-18,71,55,40,58,47,40,100,79,39,30.28,30.11,10,2,11,0.00
2013-9-19,76,60,44,60,52,44,100,79,43,30.12,29.99,11,2,14,0.01
2013-9-20,79,64,49,66,57,46,99,79,50,30.02,29.89,11,2,13,0.01
2013-9-21,80,65,52,72,58,48,100,79,45,29.93,29.60,19,4,23,1.24
2013-9-22,68,62,55,61,52,45,98,68,48,29.86,29.59,14,4,23,0.31
2013-9-23,65,56,47,48,46,43,98,71,51,29.98,29.86,14,4,19,0.00
2013-9-24,74,58,41,52,48,41,100,75,38,30.00,29.82,11,3,16,0.00
2013-9-25,72,58,43,56,50,43,100,78,43,29.90,29.81,10,2,12,0.00
2013-9-26,72,58,47,64,54,44,98,87,63,30.02,29.87,9,2,13,0.01
2013-9-27,70,60,52,61,54,50,99,82,55,30.19,30.02,8,2,11,0.00
2013-9-28,73,62,55,61,55,51,99,78,47,30.24,30.16,12,3,14,0.00
2013-9-29,73,59,47,64,53,44,99,83,60,30.16,29.99,10,2,13,0.00
2013-9-30,74,60,45,63,51,42,100,77,46,30.02,29.90,8,1,11,0.01